DW4879 Weather Reports


time (UTC)temp
C
wind
direction
speed
KPH
gust
KPH
rain 1hr
cm
rain 24hr
cm
rain mn
cm
humidity
%
barometer
mb
20260904075600 20 129 3.2 4.8 0.00 0.00 0.00 55 1021.2
20260904075006 20 124 1.6 4.8 0.00 0.00 0.00 54 1021.3
20260904074607 20 140 1.6 4.8 0.00 0.00 0.00 54 1021.2
20260904074051 20 140 1.6 4.8 0.00 0.00 0.00 54 1021.2
20260904073600 20 151 1.6 6.4 0.00 0.00 0.00 54 1021.3
20260904073052 20 161 3.2 9.7 0.00 0.00 0.00 54 1021.3
20260904072542 20 142 4.8 9.7 0.00 0.00 0.00 53 1021.2
20260904072049 21 143 1.6 4.8 0.00 0.00 0.00 53 1021.2
20260904071607 21 159 1.6 6.4 0.00 0.00 0.00 53 1021.2
20260904071001 21 165 4.8 8.0 0.00 0.00 0.00 52 1021.3
20260904070557 21 141 4.8 6.4 0.00 0.00 0.00 52 1021.2
20260904070107 21 161 1.6 4.8 0.00 0.00 0.00 51 1021.3
20260904065554 21 185 1.6 9.7 0.00 0.00 0.00 51 1021.3
20260904065104 21 169 4.8 9.7 0.00 0.00 0.00 51 1021.3
20260904064555 21 151 4.8 9.7 0.00 0.00 0.00 51 1021.3
20260904064047 21 168 4.8 11.3 0.00 0.00 0.00 51 1021.2
20260904063555 21 142 6.4 11.3 0.00 0.00 0.00 50 1021.2
20260904063045 22 155 4.8 12.9 0.00 0.00 0.00 50 1021.1
20260904062553 22 142 4.8 12.9 0.00 0.00 0.00 50 1021.1
20260904062103 22 166 6.4 14.5 0.00 0.00 0.00 50 1021.1
20260904061504 22 154 8.0 14.5 0.00 0.00 0.00 50 1021.0
20260904061059 22 165 6.4 12.9 0.00 0.00 0.00 49 1021.1
20260904060504 22 171 6.4 12.9 0.00 0.00 0.00 49 1021.0
20260904060010 22 126 8.0 16.1 0.00 0.00 0.00 49 1021.0
20260904055604 22 145 6.4 16.1 0.00 0.00 0.00 49 1021.0
20260904055008 22 124 6.4 14.5 0.00 0.00 0.00 49 1021.1
20260904054606 22 160 8.0 14.5 0.00 0.00 0.00 49 1021.1
20260904054007 22 173 4.8 17.7 0.00 0.00 0.00 49 1021.1
20260904053603 22 146 8.0 17.7 0.00 0.00 0.00 49 1021.0
20260904053102 22 150 9.7 17.7 0.00 0.00 0.00 48 1021.0
20260904052603 22 162 8.0 16.1 0.00 0.00 0.00 48 1020.9
20260904052056 22 167 9.7 17.7 0.00 0.00 0.00 47 1021.0
20260904051546 23 161 4.8 14.5 0.00 0.00 0.00 47 1021.0
20260904051054 23 167 8.0 14.5 0.00 0.00 0.00 46 1021.0
20260904050603 23 160 4.8 11.3 0.00 0.00 0.00 47 1021.0
20260904050005 23 180 6.4 17.7 0.00 0.00 0.00 47 1020.9
20260904045559 23 144 9.7 22.5 0.00 0.00 0.00 47 1021.0
20260904045003 23 156 11.3 22.5 0.00 0.00 0.00 47 1021.0
20260904044600 23 173 11.3 17.7 0.00 0.00 0.00 46 1021.0
20260904044003 23 157 11.3 16.1 0.00 0.00 0.00 45 1021.0
20260904043602 23 192 9.7 24.1 0.00 0.00 0.00 45 1021.0
20260904043104 23 164 12.9 24.1 0.00 0.00 0.00 46 1021.0
20260904042604 23 151 9.7 24.1 0.00 0.00 0.00 46 1020.9
20260904042053 23 161 11.3 25.7 0.00 0.00 0.00 45 1021.0
20260904041601 23 140 12.9 25.7 0.00 0.00 0.00 44 1021.0
20260904041053 23 163 12.9 20.9 0.00 0.00 0.00 40 1021.0
20260904040543 23 121 3.2 6.4 0.00 0.00 0.00 35 1021.0
20260904040051 24 139 4.8 12.9 0.00 0.00 0.00 35 1020.8
20260904035559 24 143 6.4 12.9 0.00 0.00 0.00 35 1020.9
20260904035003 24 121 3.2 4.8 0.00 0.00 0.00 34 1020.8
20260904034557 24 110 3.2 3.2 0.00 0.00 0.00 34 1020.7
20260904034105 24 126 1.6 3.2 0.00 0.00 0.00 34 1020.7
20260904033559 24 126 1.6 3.2 0.00 0.00 0.00 34 1020.7
20260904033105 24 126 1.6 3.2 0.00 0.00 0.00 33 1020.7
20260904032558 24 126 1.6 3.2 0.00 0.00 0.00 33 1020.6
20260904032050 24 132 1.6 4.8 0.00 0.00 0.00 33 1020.6
20260904031558 24 132 3.2 4.8 0.00 0.00 0.00 33 1020.5
20260904031054 24 161 1.6 3.2 0.00 0.00 0.00 32 1020.5
20260904030541 24 174 1.6 1.6 0.00 0.00 0.00 32 1020.4
20260904030049 24 263 0.0 0.0 0.00 0.00 0.00 32 1020.3
20260904025559 24 263 0.0 0.0 0.00 0.00 0.00 32 1020.3
20260904025105 25 263 0.0 0.0 0.00 0.00 0.00 32 1020.3
20260904024556 25 263 0.0 0.0 0.00 0.00 0.00 32 1020.3
20260904024105 25 263 0.0 0.0 0.00 0.00 0.00 31 1020.2
20260904023556 25 263 0.0 0.0 0.00 0.00 0.00 31 1020.1
20260904023105 25 263 0.0 0.0 0.00 0.00 0.00 31 1020.1
20260904022558 25 263 0.0 0.0 0.00 0.00 0.00 31 1020.2
20260904022046 25 263 0.0 0.0 0.00 0.00 0.00 31 1020.1
20260904021557 26 263 0.0 0.0 0.00 0.00 0.00 30 1020.0
20260904021102 26 263 0.0 0.0 0.00 0.00 0.00 30 1020.0
20260904020505 26 263 0.0 0.0 0.00 0.00 0.00 30 1019.9
20260904020028 26 263 0.0 0.0 0.00 0.00 0.00 29 1019.9
20260904015536 26 263 0.0 0.0 0.00 0.00 0.00 29 1019.9
20260904015044 26 263 0.0 0.0 0.00 0.00 0.00 29 1020.0
20260904014556 27 263 0.0 0.0 0.00 0.00 0.00 29 1019.9
20260904014100 27 263 0.0 1.6 0.00 0.00 0.00 28 1020.0
20260904013502 27 263 0.0 3.2 0.00 0.00 0.00 28 1019.9
20260904013112 27 263 0.0 3.2 0.00 0.00 0.00 28 1019.9
20260904012502 27 263 1.6 6.4 0.00 0.00 0.00 27 1020.0
20260904012058 27 259 3.2 6.4 0.00 0.00 0.00 28 1020.0
20260904011553 27 251 1.6 6.4 0.00 0.00 0.00 27 1020.0
20260904011056 28 231 1.6 8.0 0.00 0.00 0.00 27 1020.0
20260904010604 28 277 3.2 11.3 0.00 0.00 0.00 27 1020.0
20260904010010 28 236 4.8 11.3 0.00 0.00 0.00 27 1020.0
20260904005603 28 209 1.6 9.7 0.00 0.00 0.00 26 1020.0
20260904005004 28 232 3.2 14.5 0.00 0.00 0.00 25 1020.0
20260904004602 29 276 6.4 14.5 0.00 0.00 0.00 25 1020.0
20260904004006 29 270 1.6 12.9 0.00 0.00 0.00 25 1020.1
20260904003601 29 267 6.4 20.9 0.00 0.00 0.00 25 1020.0
20260904003053 29 205 3.2 20.9 0.00 0.00 0.00 24 1020.1
20260904002604 30 294 3.2 9.7 0.00 0.00 0.00 25 1020.0
20260904002055 30 312 3.2 12.9 0.00 0.00 0.00 25 1020.0
20260904001543 30 329 6.4 12.9 0.00 0.00 0.00 26 1020.1
20260904001052 30 190 1.6 11.3 0.00 0.00 0.00 25 1020.1
20260904000559 30 194 1.6 12.9 0.00 0.00 0.00 25 1020.2
20260904000002 30 196 3.2 11.3 0.00 0.00 0.00 25 1020.1
20260903235557 30 168 3.2 8.0 0.00 0.00 0.00 25 1020.2
20260903235104 30 155 3.2 12.9 0.00 0.00 0.00 25 1020.1
20260903234558 30 220 4.8 9.7 0.00 0.00 0.00 25 1020.3
20260903234001 30 213 1.6 14.5 0.00 0.00 0.00 25 1020.2
20260903233557 30 134 6.4 14.5 0.00 0.00 0.00 25 1020.3
20260903233052 30 155 6.4 16.1 0.00 0.00 0.00 25 1020.3
20260903232559 30 169 9.7 16.1 0.00 0.00 0.00 25 1020.3
20260903232052 30 185 6.4 14.5 0.00 0.00 0.00 25 1020.4
20260903231543 30 178 6.4 16.1 0.00 0.00 0.00 25 1020.4
20260903231050 30 171 6.4 16.1 0.00 0.00 0.00 26 1020.4
20260903230542 30 304 3.2 11.3 0.00 0.00 0.00 25 1020.5
20260903230049 30 203 6.4 11.3 0.00 0.00 0.00 25 1020.5
20260903225557 31 186 3.2 8.0 0.00 0.00 0.00 25 1020.5
20260903225106 31 244 1.6 12.9 0.00 0.00 0.00 25 1020.5
20260903224555 31 220 1.6 11.3 0.00 0.00 0.00 25 1020.6
20260903224105 31 263 1.6 8.0 0.00 0.00 0.00 25 1020.6
20260903223559 31 132 1.6 14.5 0.00 0.00 0.00 25 1020.7
20260903223111 31 197 8.0 14.5 0.00 0.00 0.00 25 1020.8
20260903222557 31 259 3.2 9.7 0.00 0.00 0.00 26 1020.7
20260903222048 31 257 1.6 12.9 0.00 0.00 0.00 26 1020.8
20260903221556 31 145 4.8 17.7 0.00 0.00 0.00 26 1020.9
20260903221102 31 235 9.7 17.7 0.00 0.00 0.00 26 1021.0
20260903220505 30 255 6.4 12.9 0.00 0.00 0.00 26 1021.0
20260903220107 30 203 8.0 12.9 0.00 0.00 0.00 26 1020.9
20260903215549 30 15 1.6 9.7 0.00 0.00 0.00 26 1021.1
20260903215056 30 176 3.2 9.7 0.00 0.00 0.00 27 1021.2
20260903214604 30 340 1.6 6.4 0.00 0.00 0.00 27 1021.2
20260903214007 29 329 3.2 9.7 0.00 0.00 0.00 28 1021.3
20260903213605 29 292 4.8 19.3 0.00 0.00 0.00 27 1021.3
20260903213013 29 329 11.3 19.3 0.00 0.00 0.00 27 1021.2
20260903212605 30 294 4.8 14.5 0.00 0.00 0.00 27 1021.3
20260903212006 30 271 8.0 14.5 0.00 0.00 0.00 26 1021.4
20260903211515 30 217 1.6 12.9 0.00 0.00 0.00 27 1021.5
20260903211022 30 229 6.4 16.1 0.00 0.00 0.00 27 1021.5
20260903210531 30 215 3.2 16.1 0.00 0.00 0.00 27 1021.6
20260903210048 30 201 1.6 16.1 0.00 0.00 0.00 28 1021.6
20260903205546 29 215 9.7 16.1 0.00 0.00 0.00 29 1021.8
20260903205037 28 96 3.2 14.5 0.00 0.00 0.00 29 1021.8
20260903204546 29 96 6.4 14.5 0.00 0.00 0.00 28 1021.8
20260903204055 29 169 8.0 14.5 0.00 0.00 0.00 28 1021.9
20260903203603 29 188 3.2 14.5 0.00 0.00 0.00 28 1021.9
20260903203052 29 275 4.8 14.5 0.00 0.00 0.00 28 1022.0
20260903202600 30 193 3.2 16.1 0.00 0.00 0.00 27 1022.0
20260903202053 30 193 6.4 16.1 0.00 0.00 0.00 27 1021.9
20260903201601 30 226 8.0 24.1 0.00 0.00 0.00 27 1022.0
20260903201053 29 180 9.7 17.7 0.00 0.00 0.00 29 1022.0
20260903200543 28 234 4.8 20.9 0.00 0.00 0.00 30 1022.1
20260903200058 27 252 14.5 20.9 0.00 0.00 0.00 30 1022.0
20260903195546 27 265 11.3 16.1 0.00 0.00 0.00 30 1022.1
20260903195052 27 251 0.0 14.5 0.00 0.00 0.00 31 1022.2
20260903194600 27 238 9.7 17.7 0.00 0.00 0.00 31 1022.3
20260903194002 28 340 9.7 19.3 0.00 0.00 0.00 29 1022.4
20260903193600 28 292 4.8 16.1 0.00 0.00 0.00 29 1022.5
20260903193004 28 271 8.0 20.9 0.00 0.00 0.00 30 1022.6
20260903192602 28 9 9.7 20.9 0.00 0.00 0.00 29 1022.6
20260903192052 28 331 3.2 12.9 0.00 0.00 0.00 30 1022.8
20260903191559 28 133 6.4 16.1 0.00 0.00 0.00 30 1022.9
20260903191053 27 294 8.0 20.9 0.00 0.00 0.00 30 1022.9
20260903190544 28 271 8.0 20.9 0.00 0.00 0.00 30 1022.9
20260903190054 28 247 4.8 14.5 0.00 0.00 0.00 30 1023.0
20260903185559 27 238 4.8 16.1 0.00 0.00 0.00 31 1023.0
20260903185002 27 268 4.8 11.3 0.00 0.00 0.00 31 1023.1
20260903184556 27 221 4.8 14.5 0.00 0.00 0.00 31 1023.2
20260903184104 27 313 4.8 16.1 0.00 0.00 0.00 31 1023.3
20260903183556 27 262 6.4 16.1 0.00 0.00 0.00 32 1023.3
20260903183105 27 334 8.0 16.1 0.00 0.00 0.00 31 1023.4
20260903182558 27 171 3.2 8.0 0.00 0.00 0.00 31 1023.5
20260903182049 26 19 0.0 14.5 0.00 0.00 0.00 33 1023.5
20260903181556 26 223 4.8 16.1 0.00 0.00 0.00 32 1023.6
20260903181104 26 268 8.0 16.1 0.00 0.00 0.00 33 1023.6
20260903180506 26 341 1.6 14.5 0.00 0.00 0.00 34 1023.7
20260903180053 26 5 3.2 17.7 0.00 0.00 0.00 34 1023.8
20260903175602 25 266 9.7 19.3 0.00 0.00 0.00 34 1023.8
20260903175003 25 306 11.3 19.3 0.00 0.00 0.00 34 1023.8
20260903174558 25 267 8.0 14.5 0.00 0.00 0.00 34 1023.8
20260903174003 25 289 1.6 19.3 0.00 0.00 0.00 36 1024.0
20260903173559 25 294 11.3 17.7 0.00 0.00 0.00 35 1023.9
20260903173007 25 297 8.0 16.1 0.00 0.00 0.00 35 1023.9
20260903172601 25 282 6.4 14.5 0.00 0.00 0.00 34 1023.9
20260903172055 26 249 3.2 14.5 0.00 0.00 0.00 33 1023.9
20260903171603 26 304 6.4 12.9 0.00 0.00 0.00 33 1024.0
20260903171108 26 204 3.2 12.9 0.00 0.00 0.00 35 1023.9
20260903170508 26 264 4.8 9.7 0.00 0.00 0.00 35 1023.9
20260903170108 26 215 4.8 9.7 0.00 0.00 0.00 37 1023.9
20260903165507 26 118 1.6 6.4 0.00 0.00 0.00 38 1023.9
20260903165105 25 175 0.0 6.4 0.00 0.00 0.00 38 1024.0
20260903164508 25 50 1.6 4.8 0.00 0.00 0.00 39 1023.9
20260903164105 25 84 0.0 6.4 0.00 0.00 0.00 39 1023.9
20260903163555 25 169 1.6 6.4 0.00 0.00 0.00 40 1024.0
20260903163102 24 155 1.6 4.8 0.00 0.00 0.00 41 1023.9
20260903162504 24 66 1.6 8.0 0.00 0.00 0.00 42 1023.9
20260903162013 23 135 1.6 6.4 0.00 0.00 0.00 42 1023.9
20260903161522 23 163 3.2 6.4 0.00 0.00 0.00 43 1023.9
20260903161027 23 207 3.2 6.4 0.00 0.00 0.00 44 1023.8
20260903160535 23 119 3.2 11.3 0.00 0.00 0.00 45 1023.9
20260903160043 22 144 3.2 11.3 0.00 0.00 0.00 45 1023.9
20260903155548 22 113 3.2 12.9 0.00 0.00 0.00 46 1023.9
20260903155056 22 150 4.8 12.9 0.00 0.00 0.00 47 1024.0
20260903154604 22 115 4.8 12.9 0.00 0.00 0.00 47 1023.9
20260903154006 21 142 8.0 12.9 0.00 0.00 0.00 48 1024.0
20260903153517 21 90 6.4 12.9 0.00 0.00 0.00 48 1024.0
20260903153019 21 110 8.0 12.9 0.00 0.00 0.00 49 1024.0
20260903152527 21 116 4.8 12.9 0.00 0.00 0.00 49 1024.0
20260903152035 21 135 6.4 12.9 0.00 0.00 0.00 50 1024.0
20260903151543 20 147 4.8 12.9 0.00 0.00 0.00 51 1023.9
20260903151051 20 107 8.0 12.9 0.00 0.00 0.00 51 1024.0
20260903150542 20 121 8.0 12.9 0.00 0.00 0.00 52 1024.0
20260903150059 20 117 8.0 14.5 0.00 0.00 0.00 52 1024.0
20260903145557 19 126 8.0 14.5 0.00 0.00 0.00 51 1023.9
20260903145002 19 119 6.4 11.3 0.00 0.00 0.00 54 1023.9
20260903144556 19 105 4.8 11.3 0.00 0.00 0.00 54 1024.0
20260903144104 18 88 4.8 12.9 0.00 0.00 0.00 54 1024.0
20260903143556 18 86 4.8 12.9 0.00 0.00 0.00 54 1024.0
20260903143110 18 110 6.4 12.9 0.00 0.00 0.00 54 1023.9
20260903142557 18 86 6.4 12.9 0.00 0.00 0.00 55 1023.9
20260903142049 18 103 4.8 12.9 0.00 0.00 0.00 56 1023.8
20260903141555 17 124 8.0 12.9 0.00 0.00 0.00 55 1023.8
20260903141103 17 135 8.0 12.9 0.00 0.00 0.00 56 1023.7
20260903140507 17 121 6.4 12.9 0.00 0.00 0.00 56 1023.7
20260903140051 17 111 8.0 12.9 0.00 0.00 0.00 57 1023.7
20260903135601 17 121 6.4 12.9 0.00 0.00 0.00 58 1023.7
20260903135053 16 107 8.0 12.9 0.00 0.00 0.00 59 1023.7
20260903134611 16 119 6.4 12.9 0.00 0.00 0.00 60 1023.7
20260903134005 16 105 8.0 11.3 0.00 0.00 0.00 61 1023.6
20260903133600 16 128 6.4 11.3 0.00 0.00 0.00 61 1023.6
20260903133002 15 111 4.8 9.7 0.00 0.00 0.00 62 1023.6
20260903132558 15 122 4.8 9.7 0.00 0.00 0.00 63 1023.6
20260903132048 15 107 6.4 9.7 0.00 0.00 0.00 64 1023.6
20260903131557 15 123 4.8 9.7 0.00 0.00 0.00 64 1023.6
20260903131105 14 117 4.8 8.0 0.00 0.00 0.00 65 1023.4
20260903130507 14 99 6.4 11.3 0.00 0.00 0.00 65 1023.4
20260903125506 14 99 4.8 11.3 0.00 0.00 0.00 66 1023.4
20260903125013 14 88 4.8 12.9 0.00 0.00 0.00 66 1023.3
20260903124519 14 90 6.4 12.9 0.00 0.00 0.00 66 1023.2
20260903124027 14 67 6.4 12.9 0.00 0.00 0.00 65 1023.2
20260903123536 14 92 6.4 12.9 0.00 0.00 0.00 65 1023.3
20260903123043 14 89 6.4 14.5 0.00 0.00 0.00 65 1023.3
20260903122553 14 87 9.7 14.5 0.00 0.00 0.00 65 1023.1
20260903122059 14 107 6.4 11.3 0.00 0.00 0.00 65 1023.1
20260903121502 14 96 4.8 11.3 0.00 0.00 0.00 65 1023.1
20260903121057 14 96 6.4 11.3 0.00 0.00 0.00 65 1023.1
20260903120607 14 108 6.4 9.7 0.00 0.00 0.00 65 1023.1
20260903120056 14 144 8.0 12.9 0.00 0.00 0.00 64 1023.0
20260903115604 14 114 8.0 12.9 0.00 0.00 0.00 64 1023.0
20260903115056 15 123 8.0 11.3 0.00 0.00 0.00 64 1023.0
20260903114605 15 101 4.8 9.7 0.00 0.00 0.00 63 1023.0
20260903114010 15 80 4.8 9.7 0.00 0.00 0.00 63 1022.9
20260903113606 15 105 6.4 12.9 0.00 0.00 0.00 63 1022.9
20260903113006 15 111 8.0 12.9 0.00 0.00 0.00 63 1022.8
20260903112518 15 138 3.2 9.7 0.00 0.00 0.00 63 1022.9
20260903112022 15 107 3.2 9.7 0.00 0.00 0.00 62 1022.9
20260903111530 15 135 4.8 9.7 0.00 0.00 0.00 62 1022.9
20260903111040 15 117 3.2 9.7 0.00 0.00 0.00 61 1022.9
20260903110547 15 115 3.2 9.7 0.00 0.00 0.00 61 1022.9
20260903110051 15 102 4.8 8.0 0.00 0.00 0.00 61 1022.9
20260903105545 15 78 3.2 9.7 0.00 0.00 0.00 61 1022.8
20260903105049 15 80 4.8 9.7 0.00 0.00 0.00 61 1022.8
20260903104605 15 96 4.8 9.7 0.00 0.00 0.00 60 1022.8
20260903104001 15 99 3.2 9.7 0.00 0.00 0.00 60 1022.8
20260903103556 15 98 6.4 9.7 0.00 0.00 0.00 60 1022.8
20260903103104 16 103 4.8 9.7 0.00 0.00 0.00 59 1022.8
20260903102557 16 113 3.2 6.4 0.00 0.00 0.00 59 1022.8
20260903102047 16 117 3.2 6.4 0.00 0.00 0.00 59 1022.9
20260903101556 16 101 4.8 6.4 0.00 0.00 0.00 59 1022.9
20260903101102 16 88 3.2 6.4 0.00 0.00 0.00 59 1022.9
20260903100505 16 101 4.8 6.4 0.00 0.00 0.00 59 1022.9
20260903100042 16 126 3.2 9.7 0.00 0.00 0.00 59 1023.0
20260903095549 16 92 4.8 9.7 0.00 0.00 0.00 59 1023.0
20260903095058 16 90 3.2 6.4 0.00 0.00 0.00 59 1022.9
20260903094502 16 105 3.2 6.4 0.00 0.00 0.00 58 1022.8
20260903094057 16 109 3.2 6.4 0.00 0.00 0.00 58 1022.9
20260903093606 16 107 3.2 6.4 0.00 0.00 0.00 58 1022.8
20260903093103 16 99 1.6 6.4 0.00 0.00 0.00 58 1022.9
20260903092605 16 95 3.2 8.0 0.00 0.00 0.00 58 1022.9
20260903092058 16 105 4.8 8.0 0.00 0.00 0.00 58 1022.8
20260903091500 16 98 4.8 9.7 0.00 0.00 0.00 58 1022.8
20260903091009 16 123 4.8 9.7 0.00 0.00 0.00 57 1022.8
20260903090606 16 128 4.8 6.4 0.00 0.00 0.00 57 1022.8
20260903090008 16 126 3.2 6.4 0.00 0.00 0.00 57 1022.7
20260903085603 16 117 3.2 9.7 0.00 0.00 0.00 57 1022.7
20260903085006 16 121 3.2 9.7 0.00 0.00 0.00 56 1022.8
20260903084604 17 116 4.8 9.7 0.00 0.00 0.00 56 1022.7
20260903084007 16 114 4.8 9.7 0.00 0.00 0.00 56 1022.7
20260903083604 16 98 4.8 9.7 0.00 0.00 0.00 57 1022.7
20260903083054 16 97 3.2 6.4 0.00 0.00 0.00 57 1022.7
20260903082601 16 61 0.0 3.2 0.00 0.00 0.00 56 1022.7
20260903082054 17 61 0.0 3.2 0.00 0.00 0.00 56 1022.7
20260903081602 17 61 0.0 4.8 0.00 0.00 0.00 56 1022.8
20260903081054 17 73 3.2 6.4 0.00 0.00 0.00 56 1022.8
20260903080545 17 32 3.2 6.4 0.00 0.00 0.00 55 1022.8
20260903080053 17 101 3.2 6.4 0.00 0.00 0.00 55 1022.7